Location: ASU Dark Sky Observatory
(36.2504°N, 81.4125°W)
Time: 07:24:37
(UTC-05:00)

Daily predictions for brighter satellites

Satellite Brightness Start Highest point End
(mag) Time Altitude Azimuth Time Altitude Azimuth Time Altitude Azimuth
Cosmos 2278 Rocket 2.3 17:27:41 10° S 17:33:16 66° ESE 17:38:52 10° NNE
PAYLOAD A 3.9 17:28:48 10° SSE 17:33:33 70° ENE 17:38:30 10° N
Cosmos 1544 Rocket 3.7 17:30:27 10° N 17:34:52 58° E 17:39:15 10° SSE
Cosmos 1975 Rocket 4.1 17:32:17 10° SSW 17:36:26 48° W 17:40:38 10° N
USA 116 4.5 17:31:58 10° NNE 17:37:19 67° E 17:42:19 10° S
SMAP 3.3 17:33:41 10° SSE 17:38:08 47° ENE 17:42:36 10° N
COSMO-SKYMED 1 3.9 17:35:56 10° NE 17:39:10 20° E 17:42:22 10° SE
USA 234 3.6 17:36:45 10° NE 17:43:14 66° NW 17:49:40 10° WSW
SL-8 R/B 4.4 17:43:00 10° WSW 17:47:35 45° NNW 17:52:10 10° NE
BREEZE M DEB (TANK) 4.5 17:45:36 10° NNW 17:48:18 18° NNE 17:53:22 10° ENE
Genesis I 4.1 17:48:12 10° N 17:51:39 28° NE 17:55:04 10° ESE
Cosmos 1536 Rocket 3.6 17:48:36 10° S 17:53:03 73° E 17:57:31 10° N
Nadezhda 3 Rocket 4.4 17:48:46 10° SSE 17:54:28 40° E 18:00:14 10° NNE
NOSS 3-3 (A) 4.2 17:51:26 10° SW 17:57:34 76° WNW 18:04:09 10° NNE
NOSS 3-3 (C) 4.2 17:51:32 10° SW 17:57:40 76° WNW 18:04:15 10° NNE
Cosmos 1833 Rocket 3.7 17:54:01 10° N 17:58:28 23° ENE 18:02:53 10° ESE
Cosmos 921 Rocket 3.7 17:55:50 10° SSE 17:59:35 32° E 18:03:24 10° NE
EP 1 4.1 17:57:54 10° SSW 18:00:37 70° ESE 18:02:42 14° NE
Cosmos 2082 Rocket 3.0 17:56:26 10° N 18:01:18 29° ENE 18:06:10 10° ESE
Cosmos 1238 Rocket 3.1 17:58:56 10° SSW 18:01:47 48° W 18:04:44 10° N
YAOGAN 1 2.5 17:57:32 10° SSE 18:01:51 81° ENE 18:06:12 10° N
SPOT 3 Rocket 3.6 17:57:18 10° SSE 18:02:29 90° E 18:07:41 10° NNW
MSX 3.9 17:57:09 10° SSE 18:02:46 59° ENE 18:08:24 10° N
CZ-4 R/B 2.0 17:59:15 10° S 18:03:23 64° W 18:07:30 10° NNW
Cosmos 1975 2.8 18:02:45 10° N 18:06:48 66° E 18:10:47 10° SSE
Cosmos 1743 3.8 18:04:00 10° NNE 18:07:08 23° ENE 18:10:14 10° SE
ATLAS 2AS CENTAUR R/B 3.2 18:00:55 10° NW 18:08:57 78° WSW 18:16:20 10° SSE
Cosmos 494 Rocket 4.2 18:03:48 10° NNW 18:09:04 78° WSW 18:14:18 10° S
Cosmos 1484 Rocket 3.1 18:06:53 10° SE 18:10:22 38° ENE 18:13:50 10° N
CZ-2C R/B 2.7 18:06:04 10° S 18:11:01 75° WSW 18:16:09 10° NNW
COSMOS 2487 2.8 18:07:43 10° N 18:11:08 41° ENE 18:14:32 10° SE
Cosmos 1500 3.2 18:08:07 10° N 18:11:55 59° E 18:15:43 10° SSE
MONITOR-E 4.3 18:09:12 10° SSE 18:12:18 51° ENE 18:15:25 10° N
Meteor 1-12 Rocket 4.4 18:07:31 10° N 18:13:22 86° W 18:19:17 10° S
Meteor 1-28 Rocket 4.1 18:15:53 19° NE 18:17:43 28° E 18:21:01 10° SSE
COSMOS 2441 4.3 18:13:37 10° SSE 18:18:26 68° ENE 18:23:18 10° N
Tiangong 1 1.6 18:15:36 10° W 18:18:32 44° NNW 18:19:54 25° NE
Meteor 1-13 Rocket 4.3 18:13:02 10° S 18:18:35 60° E 18:24:16 10° NNE
Cosmos 1455 Rocket 4.2 18:19:42 10° NNW 18:23:56 47° W 18:28:11 10° SSW
SKYMED 2 3.5 18:23:04 10° NNE 18:27:25 74° E 18:31:45 10° S
IDEFIX/ARIANE 42P 3.4 18:22:23 10° S 18:27:27 53° W 18:32:31 10° NNW
FALCON 9 R/B 4.0 17:59:28 10° WSW 18:29:59 78° S 18:35:31 22° E
Delta 2 Rocket 3.2 18:27:44 10° WSW 18:31:27 73° S 18:33:18 31° E
Meteor 2-4 Rocket 3.8 18:29:53 10° SSE 18:34:59 45° E 18:38:55 16° NNE
Okean 1-7 Rocket 3.5 18:30:37 10° S 18:35:07 75° E 18:39:36 10° N
Cosmos 1934 Rocket 4.1 18:42:51 10° N 18:48:52 49° E 18:54:56 10° SSE
NOSS 2-1 (D) 3.7 18:48:02 10° SW 18:51:47 58° NW 18:53:30 31° N
NOSS 2-1 (C) 3.7 18:48:42 10° SW 18:52:28 59° NW 18:54:09 32° NNE
Cosmos 1535 Rocket 4.4 18:46:18 10° N 18:52:35 69° E 18:58:44 10° SSE
Meteor 2-8 Rocket 4.3 18:56:05 10° S 19:02:04 66° E 19:06:34 19° NNE
Cosmos 2239 Rocket 4.4 19:00:55 10° N 19:07:08 88° W 19:13:16 10° S
BREEZE M DEB (TANK) 3.4 19:00:50 10° WSW 19:07:56 38° NW 19:08:45 33° N
NOSS 2-1 (E) 4.4 19:07:30 10° SW 19:11:10 41° NW 19:12:13 34° NNW
Timation 2 Rocket 4.4 19:04:59 10° NNW 19:11:49 70° WSW 19:18:37 10° SSE
NOAA 12 4.0 19:08:57 10° SSE 19:14:15 87° WSW 19:19:32 10° NNW
COSMO-SKYMED 1 4.4 19:11:32 10° N 19:15:18 30° WNW 19:19:05 10° SW
Cosmos 1821 Rocket 4.0 19:11:49 10° N 19:17:54 76° W 19:23:59 10° S
Okean 2 4.3 19:20:47 10° S 19:23:37 42° SSW 19:23:37 42° SSW
CZ-3B DEB 4.4 19:23:17 10° WNW 19:28:05 26° N 19:31:38 22° NNE
Cosmos 1605 Rocket 3.8 19:22:13 10° N 19:28:31 72° E 19:34:40 10° SSE
METEOR-M 4.2 19:24:39 10° S 19:29:57 74° WSW 19:35:19 10° NNW
Cosmos 2056 Rocket 3.9 19:26:01 10° SSW 19:31:19 62° WNW 19:32:41 46° NNW
Cosmos 1833 Rocket 3.7 19:37:14 10° NW 19:42:35 45° WSW 19:47:52 10° S
NOSS 3-4 (A) 3.6 19:37:43 10° NNW 19:44:51 80° ENE 19:45:08 79° E
NOSS 3-4 (C) 3.6 19:37:49 10° NNW 19:44:57 80° ENE 19:45:09 79° E
Cosmos 2082 Rocket 3.6 19:40:16 10° NW 19:45:23 35° WSW 19:50:29 10° SSW
GEOS 3 Rocket 4.0 19:47:42 58° W 19:47:42 58° W 19:52:06 10° NW
Cosmos 1727 Rocket 4.3 19:54:53 10° SSW 20:00:30 63° WSW 20:00:30 63° WSW
Cosmos 2369 Rocket 4.3 20:17:06 10° SSW 20:18:34 19° SSW 20:18:34 19° SSW
